Starlink 3226

operational
NORAD ID: 49740 Int'l Des: 2021-115 Owner: SPXS Country: US Constellation: starlink
LEOCIRCULAR

关于 Starlink 3226

正在加载描述...

实时位置

正在加载3D地球...

即将过境

高度历史

Altitude vs Time

uPlot chart will show altitude changes over time

两行轨道根数

1 49740U 21115S 25258.15092584 .00000810 00000-0 68976-4 0 9999
2 49740 53.2173 217.1183 0001490 84.5049 275.6113 15.08844162209032
Epoch: Sep 15, 2025 • Age: 17 hours

当前状态

高度 547.3 km
速度 7.59 km/s
星下点 -24.12°S, 111.64°E
发射日期 Dec 2, 2021
运行时间 3.7 years
类型 internet

技术详情

分类 Payload
质量 290.00 kg
干质量 270.00 kg
总质量 290.00 kg
长度 0.20 m
直径 2.80 m
跨度 9.00 m
形状 Box + pan
制造商 SPXS
平台类型 Starlink
阶段状态 In Orbit
所有者/国家 SPXS/US

大型星座

Loading constellations...